EW8744 Weather Reports


time (UTC)temp
C
wind
direction
speed
KPH
gust
KPH
rain 1hr
cm
rain 24hr
cm
rain mn
cm
humidity
%
barometer
mb
20260906225218 35 0 6.4 17.7 0.00 0.00 0.00 42 1009.6
20260906224718 35 0 6.4 14.5 0.00 0.00 0.00 41 1009.6
20260906224219 36 0 8.0 19.3 0.00 0.00 0.00 40 1009.7
20260906223719 36 0 8.0 19.3 0.00 0.00 0.00 40 1009.6
20260906223220 36 0 6.4 17.7 0.00 0.00 0.00 40 1009.5
20260906222719 36 0 4.8 12.9 0.00 0.00 0.00 40 1009.6
20260906222219 36 0 4.8 12.9 0.00 0.00 0.00 40 1009.6
20260906221940 36 0 6.4 16.1 0.00 0.00 0.00 40 1009.8
20260906221220 36 0 4.8 16.1 0.00 0.00 0.00 39 1009.8
20260906220718 36 0 6.4 19.3 0.00 0.00 0.00 38 1009.8
20260906220219 37 0 8.0 19.3 0.00 0.00 0.00 38 1009.8
20260906215720 37 0 6.4 19.3 0.00 0.00 0.00 38 1009.8
20260906215220 37 0 3.2 17.7 0.00 0.00 0.00 38 1009.8
20260906214719 37 0 4.8 12.9 0.00 0.00 0.00 37 1009.9
20260906214219 37 0 3.2 12.9 0.00 0.00 0.00 36 1009.9
20260906213719 37 0 1.6 12.9 0.00 0.00 0.00 37 1009.9
20260906213218 37 0 4.8 14.5 0.00 0.00 0.00 37 1009.9
20260906212719 37 0 8.0 20.9 0.00 0.00 0.00 37 1010.0
20260906212218 37 0 6.4 20.9 0.00 0.00 0.00 37 1010.1
20260906211719 36 0 4.8 16.1 0.00 0.00 0.00 38 1010.1
20260906211218 36 0 4.8 12.9 0.00 0.00 0.00 38 1010.1
20260906210926 36 0 4.8 12.9 0.00 0.00 0.00 39 1010.3
20260906210816 36 0 4.8 12.9 0.00 0.00 0.00 38 1010.3
20260906205716 36 0 4.8 14.5 0.00 0.00 0.00 39 1010.5
20260906205217 36 0 4.8 16.1 0.00 0.00 0.00 39 1010.5
20260906204718 36 0 4.8 16.1 0.00 0.00 0.00 39 1010.5
20260906204217 36 0 4.8 20.9 0.00 0.00 0.00 40 1010.6
20260906203712 36 0 6.4 20.9 0.00 0.00 0.00 39 1010.7
20260906203424 36 0 6.4 17.7 0.00 0.00 0.00 39 1010.6
20260906202659 36 0 4.8 17.7 0.00 0.00 0.00 40 1010.6
20260906202153 36 0 3.2 12.9 0.00 0.00 0.00 40 1010.7
20260906201909 35 0 4.8 14.5 0.00 0.00 0.00 41 1010.8
20260906201359 35 0 4.8 14.5 0.00 0.00 0.00 41 1010.9
20260906200635 35 0 4.8 14.5 0.00 0.00 0.00 41 1011.0
20260906200129 36 0 4.8 14.5 0.00 0.00 0.00 41 1011.1
20260906195623 36 0 4.8 14.5 0.00 0.00 0.00 40 1011.1
20260906195116 36 0 6.4 14.5 0.00 0.00 0.00 40 1011.2
20260906194611 36 0 6.4 19.3 0.00 0.00 0.00 40 1011.3
20260906194105 37 0 4.8 19.3 0.00 0.00 0.00 39 1011.4
20260906193559 37 0 3.2 9.7 0.00 0.00 0.00 39 1011.2
20260906193053 37 0 6.4 17.7 0.00 0.00 0.00 38 1011.4
20260906192546 37 0 6.4 17.7 0.00 0.00 0.00 39 1011.4
20260906192041 37 0 6.4 17.7 0.00 0.00 0.00 39 1011.5
20260906191536 37 0 4.8 17.7 0.00 0.00 0.00 39 1011.5
20260906191029 37 0 6.4 17.7 0.00 0.00 0.00 39 1011.5
20260906190523 36 0 8.0 17.7 0.00 0.00 0.00 40 1011.7
20260906190017 36 0 4.8 17.7 0.00 0.00 0.00 40 1011.7
20260906185511 36 0 3.2 12.9 0.00 0.00 0.00 41 1011.8
20260906185005 36 0 1.6 12.9 0.00 0.00 0.00 41 1011.8
20260906184459 36 0 3.2 12.9 0.00 0.00 0.00 41 1011.9
20260906183953 36 0 4.8 17.7 0.00 0.00 0.00 42 1012.0
20260906183447 36 0 4.8 17.7 0.00 0.00 0.00 42 1011.9
20260906182941 36 0 4.8 17.7 0.00 0.00 0.00 42 1012.1
20260906182435 36 0 6.4 17.7 0.00 0.00 0.00 43 1012.2
20260906181928 36 0 6.4 17.7 0.00 0.00 0.00 42 1012.2
20260906181423 35 0 4.8 14.5 0.00 0.00 0.00 44 1012.3
20260906180917 35 0 3.2 17.7 0.00 0.00 0.00 45 1012.4
20260906180641 35 0 1.6 17.7 0.00 0.00 0.00 44 1012.4
20260906180349 36 0 3.2 14.5 0.00 0.00 0.00 43 1012.5
20260906175359 36 0 4.8 16.1 0.00 0.00 0.00 44 1012.6
20260906174853 35 0 6.4 20.9 0.00 0.00 0.00 45 1012.6
20260906174348 35 0 4.8 20.9 0.00 0.00 0.00 45 1012.7
20260906174331 35 0 3.2 14.5 0.00 0.00 0.00 46 1012.7
20260906173339 35 0 3.2 14.5 0.00 0.00 0.00 46 1012.9
20260906172825 35 0 3.2 14.5 0.00 0.00 0.00 46 1012.9
20260906172319 35 0 3.2 12.9 0.00 0.00 0.00 46 1013.1
20260906172037 35 0 3.2 12.9 0.00 0.00 0.00 46 1013.2
20260906171307 35 0 3.2 12.9 0.00 0.00 0.00 46 1013.2
20260906170800 35 0 3.2 12.9 0.00 0.00 0.00 47 1013.3
20260906170255 35 0 4.8 14.5 0.00 0.00 0.00 48 1013.4
20260906165749 35 0 4.8 14.5 0.00 0.00 0.00 47 1013.5
20260906165242 34 0 3.2 12.9 0.00 0.00 0.00 48 1013.4
20260906164737 33 0 0.0 4.8 0.00 0.00 0.00 50 1013.5
20260906164231 33 0 1.6 6.4 0.00 0.00 0.00 51 1013.5
20260906163725 33 0 1.6 6.4 0.00 0.00 0.00 51 1013.6
20260906163445 34 0 3.2 9.7 0.00 0.00 0.00 50 1013.6
20260906162713 34 0 3.2 12.9 0.00 0.00 0.00 50 1013.5
20260906162207 33 0 1.6 8.0 0.00 0.00 0.00 52 1013.5
20260906161701 33 0 1.6 8.0 0.00 0.00 0.00 52 1013.5
20260906161155 33 0 1.6 8.0 0.00 0.00 0.00 53 1013.5
20260906160649 33 0 1.6 8.0 0.00 0.00 0.00 52 1013.5
20260906160142 33 0 0.0 6.4 0.00 0.00 0.00 51 1013.5
20260906155642 33 0 1.6 8.0 0.00 0.00 0.00 52 1013.4
20260906155131 33 0 1.6 8.0 0.00 0.00 0.00 53 1013.4
20260906154625 33 0 1.6 4.8 0.00 0.00 0.00 54 1013.4
20260906154119 33 0 1.6 9.7 0.00 0.00 0.00 54 1013.4
20260906153612 32 0 3.2 9.7 0.00 0.00 0.00 54 1013.4
20260906153325 32 0 1.6 8.0 0.00 0.00 0.00 55 1013.3
20260906152601 32 0 1.6 8.0 0.00 0.00 0.00 56 1013.4
20260906152054 32 0 1.6 8.0 0.00 0.00 0.00 57 1013.3
20260906151812 32 0 3.2 8.0 0.00 0.00 0.00 57 1013.3
20260906151043 31 0 1.6 4.8 0.00 0.00 0.00 58 1013.3
20260906150537 31 0 0.0 3.2 0.00 0.00 0.00 59 1013.2
20260906150031 31 0 0.0 3.2 0.00 0.00 0.00 59 1013.2
20260906145530 31 0 1.6 6.4 0.00 0.00 0.00 60 1013.3
20260906145019 31 0 1.6 6.4 0.00 0.00 0.00 61 1013.4
20260906144513 30 0 0.0 4.8 0.00 0.00 0.00 63 1013.3
20260906144007 30 0 0.0 4.8 0.00 0.00 0.00 64 1013.3
20260906143501 30 0 0.0 4.8 0.00 0.00 0.00 65 1013.3
20260906142955 30 0 0.0 4.8 0.00 0.00 0.00 66 1013.2
20260906142449 30 0 1.6 4.8 0.00 0.00 0.00 66 1013.3
20260906142209 29 0 1.6 3.2 0.00 0.00 0.00 68 1013.3
20260906141440 29 0 1.6 6.4 0.00 0.00 0.00 69 1013.4
20260906140940 28 0 3.2 8.0 0.00 0.00 0.00 70 1013.4
20260906140438 28 0 3.2 8.0 0.00 0.00 0.00 71 1013.4
20260906135939 28 0 3.2 6.4 0.00 0.00 0.00 73 1013.3
20260906135437 27 0 1.6 4.8 0.00 0.00 0.00 74 1013.4
20260906134939 27 0 1.6 4.8 0.00 0.00 0.00 75 1013.3
20260906134708 27 0 1.6 4.8 0.00 0.00 0.00 77 1013.3
20260906133938 26 0 1.6 4.8 0.00 0.00 0.00 78 1013.2
20260906133438 26 0 1.6 6.4 0.00 0.00 0.00 80 1013.2
20260906132937 26 0 1.6 6.4 0.00 0.00 0.00 81 1013.2
20260906132438 25 0 1.6 4.8 0.00 0.00 0.00 83 1013.1
20260906131936 25 0 0.0 3.2 0.00 0.00 0.00 85 1013.1
20260906131435 25 0 1.6 4.8 0.00 0.00 0.00 86 1012.9
20260906130933 24 0 1.6 4.8 0.00 0.00 0.00 87 1012.9
20260906130435 23 0 1.6 4.8 0.00 0.00 0.00 87 1012.9
20260906130415 23 0 9.7 3.2 0.00 0.00 0.00 88 1012.8
20260906125435 23 0.0 0.0 0.00 0.00 0.00 88 1012.7
20260906125151 23 0.0 0.0 0.00 0.00 0.00 88 1012.6
20260906124407 23 0.0 0.0 0.00 0.00 0.00 87 1012.7
20260906124131 22 0.0 0.0 0.00 0.00 0.00 86 1012.7
20260906123609 22 0.0 0.0 0.00 0.00 0.00 86 1012.6
20260906122835 22 0.0 0.0 0.00 0.00 0.00 85 1012.6
20260906122550 23 0.0 0.0 0.00 0.00 0.00 85 1012.5
20260906122004 23 0.0 0.0 0.00 0.00 0.00 85 1012.4
20260906121230 23 0.0 0.0 0.00 0.00 0.00 85 1012.3
20260906120949 23 0.0 0.0 0.00 0.00 0.00 84 1012.3
20260906120455 23 0.0 0.0 0.00 0.00 0.00 84 1012.2
20260906115721 23 0.0 0.0 0.00 0.00 0.00 84 1012.2
20260906115220 23 0.0 0.0 0.00 0.00 0.00 84 1012.1
20260906114900 23 0.0 0.0 0.00 0.00 0.00 84 1012.1
20260906114401 23 0.0 0.0 0.00 0.00 0.00 84 1012.1
20260906113629 23 0.0 0.0 0.00 0.00 0.00 83 1012.0
20260906113353 23 0.0 0.0 0.00 0.00 0.00 84 1012.0
20260906112625 23 0.0 0.0 0.00 0.00 0.00 83 1011.9
20260906112109 23 0.0 0.0 0.00 0.00 0.00 83 1011.9
20260906111526 23 0.0 0.0 0.00 0.00 0.00 82 1011.9
20260906111027 23 0.0 0.0 0.00 0.00 0.00 82 1011.9
20260906110511 23 0.0 0.0 0.00 0.00 0.00 82 1011.8
20260906105933 23 0.0 0.0 0.00 0.00 0.00 81 1011.8
20260906105428 23 0.0 0.0 0.00 0.00 0.00 81 1011.7
20260906104925 23 0.0 0.0 0.00 0.00 0.00 81 1011.7
20260906104643 24 0.0 0.0 0.00 0.00 0.00 81 1011.7
20260906103837 24 0.0 0.0 0.00 0.00 0.00 81 1011.6
20260906103334 24 0.0 0.0 0.00 0.00 0.00 81 1011.6
20260906102832 24 0.0 0.0 0.00 0.00 0.00 81 1011.5
20260906102330 24 0.0 0.0 0.00 0.00 0.00 81 1011.5
20260906102056 24 0.0 0.0 0.00 0.00 0.00 81 1011.6
20260906101322 24 0.0 0.0 0.00 0.00 0.00 81 1011.5
20260906101032 24 0.0 0.0 0.00 0.00 0.00 81 1011.5
20260906100300 24 0.0 0.0 0.00 0.00 0.00 81 1011.4
20260906095734 24 0.0 0.0 0.00 0.00 0.00 81 1011.3
20260906095452 24 0.0 0.0 0.00 0.00 0.00 81 1011.3
20260906094731 24 0.0 0.0 0.00 0.00 0.00 81 1011.3
20260906094229 24 0.0 0.0 0.00 0.00 0.00 81 1011.1
20260906093728 25 0.0 0.0 0.00 0.00 0.00 80 1011.2
20260906093229 25 0.0 0.0 0.00 0.00 0.00 80 1011.1
20260906092711 25 0.0 0.0 0.00 0.00 0.00 80 1011.0
20260906092153 25 0.0 0.0 0.00 0.00 0.00 80 1011.0
20260906091901 25 0.0 0.0 0.00 0.00 0.00 80 1011.0
20260906091118 25 0.0 0.0 0.00 0.00 0.00 79 1011.0
20260906090607 25 0.0 0.0 0.00 0.00 0.00 79 1011.1
20260906090048 25 0.0 0.0 0.00 0.00 0.00 79 1011.2
20260906085535 25 0.0 0.0 0.00 0.00 0.00 78 1011.3
20260906085028 25 0.0 0.0 0.00 0.00 0.00 78 1011.2
20260906084458 25 0.0 0.0 0.00 0.00 0.00 78 1011.3
20260906083953 25 0.0 0.0 0.00 0.00 0.00 78 1011.2
20260906083432 25 0.0 0.0 0.00 0.00 0.00 78 1011.2
20260906083144 25 0.0 0.0 0.00 0.00 0.00 77 1011.1
20260906082424 25 0.0 0.0 0.00 0.00 0.00 77 1011.1
20260906081911 25 0.0 0.0 0.00 0.00 0.00 77 1011.2
20260906081401 25 0.0 0.0 0.00 0.00 0.00 77 1011.2
20260906080841 25 0.0 0.0 0.00 0.00 0.00 77 1011.2
20260906080333 25 0.0 0.0 0.00 0.00 0.00 76 1011.3
20260906075832 25 0.0 0.0 0.00 0.00 0.00 76 1011.4
20260906075554 25 0.0 0.0 0.00 0.00 0.00 76 1011.3
20260906074829 26 0.0 0.0 0.00 0.00 0.00 75 1011.3
20260906074330 26 0.0 0.0 0.00 0.00 0.00 75 1011.2
20260906073810 26 0.0 0.0 0.00 0.00 0.00 75 1011.3
20260906073254 26 0.0 0.0 0.00 0.00 0.00 75 1011.4
20260906072744 26 0.0 0.0 0.00 0.00 0.00 74 1011.4
20260906072231 26 0.0 0.0 0.00 0.00 0.00 74 1011.5
20260906071729 26 0.0 0.0 0.00 0.00 0.00 73 1011.5
20260906071227 26 0.0 0.0 0.00 0.00 0.00 73 1011.6
20260906070726 26 0.0 0.0 0.00 0.00 0.00 73 1011.6
20260906070224 26 0.0 0.0 0.00 0.00 0.00 73 1011.7
20260906065947 26 0.0 0.0 0.00 0.00 0.00 73 1011.8
20260906065213 26 0.0 0.0 0.00 0.00 0.00 72 1011.8
20260906064630 26 0.0 0.0 0.00 0.00 0.00 72 1011.8
20260906064350 26 0.0 0.0 0.00 0.00 0.00 72 1011.8
20260906063629 26 0.0 0.0 0.00 0.00 0.00 71 1011.9
20260906063110 26 0.0 0.0 0.00 0.00 0.00 71 1012.0
20260906062606 27 0.0 0.0 0.00 0.00 0.00 71 1012.2
20260906062100 27 0.0 0.0 0.00 0.00 0.00 71 1012.2
20260906061811 27 0.0 0.0 0.00 0.00 0.00 71 1012.1
20260906061323 27 0.0 0.0 0.00 0.00 0.00 71 1012.1
20260906060536 27 0.0 0.0 0.00 0.00 0.00 70 1012.2
20260906060027 27 0.0 0.0 0.00 0.00 0.00 70 1012.1
20260906055509 27 0.0 0.0 0.00 0.00 0.00 70 1012.2
20260906055003 27 0.0 0.0 0.00 0.00 0.00 70 1012.2
20260906054452 27 0.0 0.0 0.00 0.00 0.00 70 1012.2
20260906053933 27 0.0 0.0 0.00 0.00 0.00 69 1012.1
20260906053920 27 0.0 0.0 0.00 0.00 0.00 69 1012.2
20260906052930 27 0.0 0.0 0.00 0.00 0.00 69 1012.2
20260906052420 27 0.0 0.0 0.00 0.00 0.00 68 1012.1
20260906051908 27 0.0 0.0 0.00 0.00 0.00 68 1012.0
20260906051346 27 0.0 0.0 0.00 0.00 0.00 68 1011.9
20260906050831 27 0.0 0.0 0.00 0.00 0.00 67 1011.9
20260906050330 27 0.0 0.0 0.00 0.00 0.00 67 1011.9
20260906045818 28 0.0 0.0 0.00 0.00 0.00 67 1012.0
20260906045230 28 0.0 0.0 0.00 0.00 0.00 67 1012.0
20260906044708 28 0.0 0.0 0.00 0.00 0.00 66 1012.1
20260906044205 28 0.0 0.0 0.00 0.00 0.00 66 1012.0
20260906043901 28 0.0 0.0 0.00 0.00 0.00 66 1012.1
20260906043136 28 0.0 0.0 0.00 0.00 0.00 66 1012.0
20260906042629 28 0.0 0.0 0.00 0.00 0.00 66 1012.0
20260906042130 28 0.0 0.0 0.00 0.00 0.00 65 1012.0
20260906041615 28 0.0 0.0 0.00 0.00 0.00 65 1012.0
20260906041110 28 0.0 0.0 0.00 0.00 0.00 65 1012.0
20260906040550 28 0.0 0.0 0.00 0.00 0.00 64 1012.0
20260906040035 28 0.0 0.0 0.00 0.00 0.00 64 1012.0
20260906035537 28 0.0 0.0 0.00 0.00 0.00 64 1012.0
20260906035029 28 0.0 0.0 0.00 0.00 0.00 63 1012.1
20260906034442 29 0.0 0.0 0.00 0.00 0.00 63 1012.1
20260906033933 29 0.0 0.0 0.00 0.00 0.00 63 1012.1
20260906033430 29 0.0 0.0 0.00 0.00 0.00 62 1012.1
20260906032915 29 0.0 0.0 0.00 0.00 0.00 62 1012.0
20260906032328 29 0.0 0.0 0.00 0.00 0.00 62 1011.9
20260906031754 29 0.0 0.0 0.00 0.00 0.00 61 1011.8
20260906031249 30 0.0 0.0 0.00 0.00 0.00 61 1011.7
20260906030734 30 0.0 0.0 0.00 0.00 0.00 61 1011.7
20260906030500 30 0.0 0.0 0.00 0.00 0.00 60 1011.7
20260906025727 30 0.0 0.0 0.00 0.00 0.00 60 1011.5
20260906025220 30 0.0 0.0 0.00 0.00 0.00 59 1011.5
20260906024937 30 0.0 0.0 0.00 0.00 0.00 59 1011.5
20260906024435 30 0.0 0.0 0.00 0.00 0.00 58 1011.4
20260906023654 30 0.0 0.0 0.00 0.00 0.00 57 1011.3
20260906023133 30 0.0 0.0 0.00 0.00 0.00 57 1011.2
20260906022612 30 0.0 0.0 0.00 0.00 0.00 57 1011.2
20260906022058 31 0.0 0.0 0.00 0.00 0.00 56 1011.1
20260906021556 31 0.0 0.0 0.00 0.00 0.00 56 1011.1
20260906021054 31 0.0 0.0 0.00 0.00 0.00 55 1011.1
20260906020754 31 0.0 0.0 0.00 0.00 0.00 55 1011.1
20260906020030 31 0.0 0.0 0.00 0.00 0.00 54 1010.9
20260906015500 31 0.0 0.0 0.00 0.00 0.00 54 1010.9
20260906014956 31 0.0 0.0 0.00 0.00 0.00 54 1010.9
20260906014446 31 0.0 0.0 0.00 0.00 0.00 53 1010.8
20260906013940 31 0.0 0.0 0.00 0.00 0.00 53 1010.7
20260906013436 31 0.0 0.0 0.00 0.00 0.00 52 1010.6
20260906012934 32 0 9.7 8.0 0.00 0.00 0.00 52 1010.5
20260906012638 32 0 9.7 19.3 0.00 0.00 0.00 51 1010.4
20260906011907 32 0 9.7 19.3 0.00 0.00 0.00 49 1010.3
20260906011635 32 0 9.7 19.3 0.00 0.00 0.00 48 1010.1
20260906011127 32 0 4.8 19.3 0.00 0.00 0.00 45 1010.1
20260906010400 33 0 1.6 4.8 0.00 0.00 0.00 43 1010.0
20260906005858 33 0 1.6 4.8 0.00 0.00 0.00 42 1009.9
20260906005357 33 0 1.6 4.8 0.00 0.00 0.00 42 1009.9
20260906004858 33 0 3.2 6.4 0.00 0.00 0.00 41 1010.0
20260906004358 33 0 3.2 8.0 0.00 0.00 0.00 41 1010.0
20260906003855 34 0 3.2 9.7 0.00 0.00 0.00 40 1009.9
20260906003355 34 0 4.8 9.7 0.00 0.00 0.00 39 1010.0
20260906003118 34 0 3.2 9.7 0.00 0.00 0.00 39 1010.0
20260906002350 35 0 3.2 9.7 0.00 0.00 0.00 39 1009.9
20260906001844 35 0 4.8 12.9 0.00 0.00 0.00 39 1009.9
20260906001337 35 0 4.8 12.9 0.00 0.00 0.00 38 1009.8
20260906000834 35 0 4.8 9.7 0.00 0.00 0.00 39 1009.8
20260906000335 35 0 4.8 12.9 0.00 0.00 0.00 39 1009.8
20260905235835 35 0 4.8 12.9 0.00 0.00 0.00 39 1009.7
20260905235335 35 0 6.4 16.1 0.00 0.00 0.00 39 1009.7
20260905234835 35 0 6.4 16.1 0.00 0.00 0.00 39 1009.7
20260905234600 35 0 4.8 17.7 0.00 0.00 0.00 39 1009.7
20260905233835 35 0 4.8 17.7 0.00 0.00 0.00 39 1009.7
20260905233336 35 0 4.8 12.9 0.00 0.00 0.00 38 1009.7
20260905232835 36 0 4.8 9.7 0.00 0.00 0.00 38 1009.7
20260905232336 36 0 4.8 12.9 0.00 0.00 0.00 38 1009.7
20260905231836 36 0 6.4 16.1 0.00 0.00 0.00 38 1009.7
20260905231330 36 0 6.4 17.7 0.00 0.00 0.00 38 1009.7
20260905230830 36 0 6.4 17.7 0.00 0.00 0.00 37 1009.7
20260905230332 36 0 6.4 19.3 0.00 0.00 0.00 37 1009.7
20260905225831 36 0 6.4 20.9 0.00 0.00 0.00 37 1009.7